Regional Weather Roundup
Issued by NWS Upton, NY

Current Version | Previous Version | Text Only | Print | Product List | Glossary Off
Versions: 1 2 3 4 5 6 7 8 9 10 11 12 13 14 15 16 17 18 19 20 21 22 23 24 25 26 27
000 ASUS41 KOKX 171208 RWROKX Regional Weather Roundup National Weather Service New York NY 700 AM EST SUN DEC 17 2017 Note: "FAIR" indicates few or no clouds below 12,000 feet with no significant weather and/or obstructions to visibility. NYZ071-072-176-178-NJZ106-104-171300- New York City Metro Area CITY SKY/WX TMP DP RH WIND PRES REMARKS Central Park CLOUDY 32 21 64 NE5 30.28R WCI 27 Bronx Bot Gard N/A 32 19 59 N2 30.29R Bronx Lehman C N/A 32 21 64 NE2 N/A LaGuardia Arpt MOCLDY 34 21 59 N7 30.27R WCI 28 Queens College N/A 32 21 64 N5 N/A WCI 27 Kennedy Intl CLOUDY 32 22 66 N3 30.28R Breezy Point N/A 32 N/A N/A NE6 N/A WCI 26 Brooklyn Coll N/A 34 23 64 N6 N/A WCI 29 Staten Island N/A 32 23 69 N2 N/A Newark/Liberty CLOUDY 32 22 66 N6 30.28R WCI 26 Teterboro CLOUDY 32 20 61 N5 30.27R WCI 27 $$ NYZ177-179-078>081-171300- Long Island New York CITY SKY/WX TMP DP RH WIND PRES REMARKS Jones Beach N/A 32 N/A N/A NE8 N/A WCI 25 Wantagh N/A 32 23 69 NE3 N/A Matinecock Pt N/A 34 N/A N/A NE5 N/A WCI 30 Farmingdale MOCLDY 30 20 66 NE3 30.27R MacArthur/ISP MOCLDY 28 18 66 NE5 30.26S WCI 23 Shirley MOCLDY 29 18 63 NE3 30.27S Mt Sinai Harb N/A N/A N/A N/A N9 N/A Westhampton MOCLDY 27 16 63 N6 30.28R WCI 20 East Hampton FAIR 26 16 64 N5 30.27R WCI 21 Southold N/A 28 19 69 N7 N/A WCI 21 Montauk N/A 30 15 53 N16 30.27F WCI 19 $$ NYZ052-065-067-171300- Hudson Valley CITY SKY/WX TMP DP RH WIND PRES REMARKS White Plains MOCLDY 28 18 66 NW5 30.24R WCI 23 Larchmont Harb N/A N/A N/A N/A N3 N/A Croton On Huds N/A N/A N/A N/A CALM N/A Somers N/A 27 18 69 NW2 N/A Brewster N/A 18 14 86 NW2 N/A Newburgh MOCLDY 25 21 86 W6 30.25R WCI 18 Montgomery CLOUDY 26 17 68 CALM 30.24R Otisville N/A 27 19 74 SW1 N/A Warwick N/A 28 19 69 N1 N/A Suffern N/A 30 19 64 NW2 N/A Poughkeepsie CLOUDY 15 11 83 CALM 30.27S Albany PTCLDY 10 4 76 CALM 30.29R $$ NJZ001-105-106-008-010-013-015-019>022-104-171300- New Jersey CITY SKY/WX TMP DP RH WIND PRES REMARKS Newark/Liberty CLOUDY 32 22 66 N6 30.28R WCI 26 Teterboro CLOUDY 32 20 61 N5 30.27R WCI 27 Caldwell CLOUDY 31 20 63 CALM 30.28R Somerville CLOUDY 29 25 85 CALM 30.26R Linden CLOUDY 33 22 64 CALM 30.29R Perth Amboy N/A 32 N/A N/A NE2 N/A Sussex CLOUDY 29 19 66 NE3 30.25R Andover NOT AVBL Trenton PTCLDY 30 22 72 N3 30.26R Millville MOCLDY 25 24 96 CALM 30.26R Atlantic City CLOUDY 26 24 92 CALM 30.26R Wrightstown MOCLDY 27 23 85 CALM 30.23R Toms River PTCLDY 25 22 88 CALM 30.27R Belmar CLOUDY 28 24 85 NW3 30.27R $$ PAZ047>061-062-071-171300- Eastern Pennsylvania CITY SKY/WX TMP DP RH WIND PRES REMARKS Philadelphia CLOUDY 32 25 75 E7 30.28R WCI 26 Allentown CLOUDY 32 22 66 NE6 30.25R WCI 26 Scranton CLOUDY 27 21 78 CALM 30.23R $$ CTZ002-004>006-009-010-012-RIZ004-006-007-MAZ004-011-015-171300- Southern New England In CT CITY SKY/WX TMP DP RH WIND PRES REMARKS Bradley Intl CLOUDY 15 8 73 NE5 30.28R WCI 8 Hartford CLOUDY 16 11 80 E5 30.29R WCI 9 Danbury CLOUDY 21 15 78 CALM 30.26R Wtrbury/Oxford CLOUDY 13 9 84 N7 30.23S WCI 3 Norwalk Harbor N/A N/A N/A N/A N10 N/A Bridgeport CLOUDY 24 14 65 N3 30.28S Meriden CLOUDY 11 8 88 NW3 30.28S New Haven CLOUDY 18 12 77 CALM 30.28R Chester FAIR 19 9 63 N6 30.25S WCI 11 Groton CLEAR 22 10 60 NW7 30.28R WCI 13 Willimantic CLOUDY 8 3 80 CALM 30.29R In RI CITY SKY/WX TMP DP RH WIND PRES REMARKS Providence CLEAR 15 11 83 CALM 30.27S Block Island CLEAR 26 13 57 NW13G21 30.26S WCI 15 Westerly CLOUDY 22 8 55 NW5 30.28S WCI 16 In MA CITY SKY/WX TMP DP RH WIND PRES REMARKS Boston PTCLDY 20 6 55 W14 30.27R WCI 7 Worcester CLOUDY 13 3 64 W16 30.18F WCI -3 Westfield PTCLDY 6 4 91 CALM 30.27R Provincetown CLEAR 25 13 60 NW16 N/A WCI 12 Nantucket CLEAR 25 13 60 NW14 30.24F WCI 13 $$ ANZ330-335-338-340-345-350-353-355-171300- Coastal Marine Observations STATION/POSITION TIME SKY/WX TEMP WIND PRES VSBY WAVE AIR SEA DIR/SP/G HT/PER (UTC) (F) (DEG/KT/KT) (MB) (MI) (FT/S) NY Harb Entrance 1150 37 50 20/ 8/ 12 1024.4 2/ 6 20 S Fire Island 1150 36 50 40/ 6/ 10 1024.7 3/ 6 15 E Barnegat Li 1130 49 N/A 2/ 5 Hudson Canyon 1050 42 54 10/ 6/ 10 1023.8 4/ 6 Kings Point 1130 33 42 40/ 7/ 8 1025.6 Execution Rocks 1130 34 20/ 8/ 12 N/A Western LI Sound NOT AVBL Central LI Sound 1130 29 10/ 10/ 14 N/A 1 Robbins Reef 1142 34 330/ 4/ 7 1025.3 $$ >>>>>>>>>>>>>>>>>>>>>>>>>>>> KEY <<<<<<<<<<<<<<<<<<<<<<<<<<< > < > SKY/WX - Sky Condition/Present Weather < > TMP - Temperature in Fahrenheit < > DP - Dew Point in Fahrenheit < > RH - Relative Humidity in Percent < > WIND - Direction (from) and Speed in MPH < > PRES - Mean Sea Level Pressure (inches of Hg) < > WCI - Wind Chill Index < > VSB - Visibility in Miles < > HX - Heat Index < > TC - Temperature in Celsius < > VRB - Varibale Wind Direction < > < >>>>>>>>>>>>>>>>>>>>>>>>>>>> KEY <<<<<<<<<<<<<<<<<<<<<<<<<<<

USA.gov is the U.S. government's official web portal to all federal, state and local government web resources and services.